Find Starlink 31447

NORAD ID: 59302 Int'l Des: 2024-056 Owner: SPXS Country: US Constellation: starlink operational
LEOCIRCULAR

Current View

Loading 3D Globe...

About Starlink 31447

Starlink 31447 (NORAD 59302) is a starlink constellation satellite (v2 mini) launched Mar 24, 2024 by SPXS of US. It operates in LEO, CIRCULAR orbit with a mass of 730.00 kg.

Upcoming Passes

Passes for default location (London). Set your location on the main map for personalized predictions.

Altitude History

Loading altitude history...

Two-Line Element Set

1 59302U 24056G 26261.90290282 .00000185 00000-0 16258-4 0 9995
2 59302 43.0001 219.5546 0001063 276.3669 83.7061 15.27571266140709
Epoch: Sep 18, 2026 • Age: 65 hours

Current Status

Altitude 486.4 km
Apogee / Perigee N/A
Velocity 7.62 km/s
Sub-Earth Point -16.34°S, 178.43°E
Launch Date Mar 24, 2024
Age 2.4 years
Type internet

Technical Details

Classification Payload
Mass 730.00 kg
Dry Mass 700.00 kg
Length 0.30 m
Span 29.00 m
Shape ? Box + pan
Manufacturer SPXS
Bus Type Starlink V2M
Phase Status In Orbit
Owner/State SPXS/US

Most Searched